Location: Eimen
(51.8766°N, 9.7806°E)
Time: 15:25:18
(UTC+00:00)

USA 267 - Pass Details

Date: 23 May 2024
Orbit: 1100 x 1107 km, 123.0° (Epoch: 21 May)

Event Time Altitude Azimuth Distance (km) Brightness Sun altitude
Rises 01:57:41 0° 72° (ENE) 3,921 7.2 -9.5°
Reaches altitude 10° 02:00:11 10° 69° (ENE) 2,962 6.5 -9.3°
Maximum altitude 02:06:35 60° 352° (N) 1,249 3.8 -8.6°
Drops below altitude 10° 02:12:59 10° 275° (W) 2,960 5.2 -8.0°
Sets 02:15:29 0° 271° (W) 3,918 5.8 -7.8°
